Location: Caracas
(10.5033°N, 66.8422°W)
Time: 17:45:54
(UTC-04:00)

Tiangong 1 - Visible Passes

Search period start: 23 January 2018 00:00
Search period end: 02 February 2018 00:00
Orbit: 260 x 286 km, 42.8° (Epoch: 23 January)

Date Brightness Start Highest point End Pass type
(mag) Time Alt. Az. Time Alt. Az. Time Alt. Az.
27 Jan 1.8 18:57:29 10° NNW 18:59:27 21° NE 19:01:20 10° E visible
28 Jan 0.2 18:55:22 10° NW 18:57:46 68° NE 19:00:08 10° SE visible
29 Jan 2.3 18:53:39 10° WNW 18:55:53 32° SW 18:58:05 10° SSE visible
30 Jan 3.8 18:52:41 10° WSW 18:53:48 12° SW 18:54:54 10° SSW visible
01 Feb 3.7 06:06:09 10° SSE 06:07:19 13° SE 06:08:30 10° ESE visible
